This is the latest recevied weather packets stored in our database for station/object N4ASP-13. If no packets are shown the sender has not sent any weather packets the latest 10 day(s).
| Time | Temp. | Humidity | Pressure | Rain* | Wind** | Luminosity | Snow |
|---|---|---|---|---|---|---|---|
| 1778081344 | 16.11° C | 87% | 1014 hPa | 0 mm | - | 142 W/m² | - |
| 1778081283 | 16.11° C | 87% | 1014 hPa | 0 mm | - | 149 W/m² | - |
| 1778081224 | 16.11° C | 87% | 1014.2 hPa | 0 mm | - | 153 W/m² | - |
| 1778081163 | 16.11° C | 87% | 1014.1 hPa | 0 mm | - | 156 W/m² | - |
| 1778081104 | 16.11° C | 86% | 1014 hPa | 0 mm | - | 162 W/m² | - |
| 1778081044 | 16.11° C | 86% | 1014.1 hPa | 0 mm | - | 163 W/m² | - |
| 1778080984 | 16.11° C | 87% | 1014.2 hPa | 0 mm | - | 167 W/m² | - |
| 1778080924 | 16.11° C | 87% | 1014.3 hPa | 0 mm | - | 183 W/m² | - |
| 1778080864 | 16.11° C | 87% | 1014.2 hPa | 0 mm | - | 193 W/m² | - |
| 1778080804 | 16.11° C | 86% | 1014.3 hPa | 0 mm | - | 204 W/m² | - |
| 1778080743 | 16.11° C | 86% | 1014.3 hPa | 0 mm | - | 206 W/m² | - |
| 1778080685 | 16.11° C | 86% | 1014.4 hPa | 0 mm | - | 199 W/m² | - |
| 1778080625 | 16.11° C | 86% | 1014.2 hPa | 0 mm | - | 195 W/m² | - |
| 1778080560 | 16.11° C | 87% | 1014.3 hPa | 0 mm | - | 199 W/m² | - |
| 1778080500 | 16.11° C | 87% | 1014.3 hPa | 0 mm | - | 200 W/m² | - |
| 1778080439 | 16.11° C | 87% | 1014.2 hPa | 0 mm | - | 202 W/m² | - |
| 1778080381 | 16.11° C | 87% | 1014.1 hPa | 0 mm | - | 197 W/m² | - |
| 1778080320 | 16.11° C | 86% | 1014.2 hPa | 0 mm | - | 188 W/m² | - |
| 1778080259 | 16.11° C | 86% | 1014 hPa | 0 mm | - | 167 W/m² | - |
| 1778080201 | 16.11° C | 86% | 1013.7 hPa | 0 mm | - | 153 W/m² | - |
| 1778080140 | 16.11° C | 86% | 1013.5 hPa | 0 mm | - | 153 W/m² | - |
| 1778080080 | 16.11° C | 86% | 1013.5 hPa | 0 mm | - | 151 W/m² | - |
| 1778080021 | 16.11° C | 86% | 1013.3 hPa | 0 mm | - | 151 W/m² | - |
| 1778079960 | 16.11° C | 86% | 1013.4 hPa | 0 mm | - | 155 W/m² | - |
| 1778079900 | 16.11° C | 86% | 1013.4 hPa | 0 mm | - | 162 W/m² | - |
* Rain latest hour (hover to see other rain measurements)
** Current wind speed in m/s (hover to see current wind gust speed)